User: anonymous   Login
Location: Oshawa
(43.9000°N, 78.8670°W)
Time: 03:47:16
(UTC-04:00)
Language:

Envisat - Orbit

View from above orbital plane
View from above orbital plane
View from above satellite
View from above satellite

Ground track
Ground track

The orbit data is extracted from the following two-line orbital elements,

1 27386U 02009A   16178.72698748  .00000010  00000-0  17071-4 0  9992
2 27386  98.2822 231.8052 0001168  86.6300 273.5011 14.37869678749995
Epoch (UTC): 26 June 2016 17:26:51
Eccentricity: 0.0001168
inclination: 98.2822°
perigee height: 765 km
apogee height: 766 km
right ascension of ascending node: 231.8052°
argument of perigee: 86.6300°
revolutions per day: 14.37869678
mean anomaly at epoch: 273.5011°
orbit number at epoch: 74999

The dashed part of the orbit path shows where the satellite is in the earth's shadow,  

DLR